weather.gov     
National Weather Service

Terminal Aerodrome Forecast
NWS Homepage
This page is being discontinued on March 12, 2014.
The same data is available at this site. Please update your bookmarks.
Thank you, and we apologize for the inconvenience.
Please send an email to SR-SRH.Webmaster@noaa.gov with any concerns.


Current Version
Previous Version:    01  02  03  04  05  06  07  08  09  10  11  12  13  14  15  16  17  18  19  20  21  22  23  24  25  26  27  28  29  30  
   31  32  33  34  35  36  37  
[Printable]
386
FTUS44 KLZK 200500
TAFLIT
TAF
KLIT 200520Z 2006/2106 04005KT 6SM BR OVC050
     FM200900 07003KT 2SM BR OVC003
      TEMPO 2010/2014 1/2SM FG VV001
     FM201530 08003KT 5SM BR OVC007
     FM201700 12003KT P6SM OVC015
     FM202100 13004KT P6SM BKN020
     FM210300 15005KT P6SM SCT030=


U.S. Dept. of Commerce
NOAA National Weather Service
1325 East West Highway
Silver Spring, MD 20910
E-mail: w-nws.webmaster@noaa.gov
Page last modified: May 16, 2007
NATIONAL WEATHER SERVICE: for Safety, for Work, for Fun - FOR LIFE